Regional Weather Roundup
Issued by NWS Green Bay, WI

Home | Current Version | Previous Version | Graphics & Text | Print | Product List | Glossary Off
Versions: 1 2 3 4 5 6 7 8 9 10 11 12 13 14 15 16 17 18 19 20 21 22 23 24 25 26 27 28 29 30 31 32 33 34 35 36 37 38 39 40 41 42 43 44 45 46 47 48 49 50

000
ASUS43 KGRB 260259
RWRGRB

NORTH-CENTRAL AND NORTHEAST WISCONSIN REGIONAL WEATHER ROUNDUP
NATIONAL WEATHER SERVICE GREEN BAY WI
900 PM CST TUE NOV 25 2014

WIZ005-009-010>012-018-019-260400-
NORTH CENTRAL WISCONSIN

CITY           SKY/WX    TMP DP  RH WIND       PRES   REMARKS
IRONWOOD       PTCLDY     3   3 100 CALM      30.02R
MANITOWISH WTR NOT AVBL
ARBOR VITAE    NOT AVBL
EAGLE RIVER    NOT AVBL
LAND O LAKES   NOT AVBL
RHINELANDER    CLEAR      3   0  87 CALM      30.03R FOG
PHILLIPS       NOT AVBL
ANTIGO         NOT AVBL
TOMAHAWK       NOT AVBL
MERRILL        NOT AVBL
$$

WIZ013-073-260400-
NORTHEAST WISCONSIN

CITY           SKY/WX    TMP DP  RH WIND       PRES   REMARKS
IRON MOUNTAIN  HAZE       5   0  79 CALM      30.05R VSB 3/4
MARINETTE      CLEAR     18  12  79 W5        30.11R
$$

WIZ017-030-035>037-045-260400-
CENTRAL WISCONSIN

CITY           SKY/WX    TMP DP  RH WIND       PRES   REMARKS
MEDFORD        NOT AVBL
WAUSAU         CLEAR     11   9  92 E5        30.05R WCI   3
MOSINEE        CLEAR     10   9  92 CALM      30.07R
MARSHFIELD     CLOUDY    21  15  78 SW7       30.06R
WISC RAPIDS    CLOUDY    18  13  80 S6        30.09S WCI  10
STEVENS POINT  NOT AVBL
WAUPACA        NOT AVBL
SHAWANO        NOT AVBL
CLINTONVILLE   NOT AVBL
$$

WIZ038-039-048-051-260400-
FOX VALLEY

CITY           SKY/WX    TMP DP  RH WIND       PRES   REMARKS
NWS GREEN BAY  MOCLDY    19  15  84 S3        30.13R
APPLETON       CLEAR     14  12  92 VRB3      30.11S
OSHKOSH        MOCLDY    17  13  84 S5        30.13R WCI  10
FOND DU LAC    CLOUDY    20  14  77 SW5       30.13R
$$

WIZ022-050-052-260400-
EAST CENTRAL WISCONSIN

CITY           SKY/WX    TMP DP  RH WIND       PRES   REMARKS
STURGEON BAY   CLOUDY    21  16  79 S6        30.12R
MANITOWOC      NOT AVBL
SHEBOYGAN      CLOUDY    20  15  81 W5        30.15R
$$

LMZ563-521-522-541>543-260400-
LAKESHORE

STATION/POSITION TIME  TEMP    WIND        PRES    VSBY  WAVE
                       AIR SEA DIR/SP/G                  HT/PER
                 (UTC) (F)     (DEG/KT/KT) (MB)    (MI)  (FT/S)
SHEBOYGAN LKSHOR 0200   21 36  240/  6/  7 1022.1R
KEWAUNEE LKSHORE 0200   21     230/  3/  8 1019.7R
ALGOMA MARINA    0200          270/  8/ 10   N/A
NORTHPORT PIER   0200   26      CALM  /  3 1019.3R
N MID LAKE BUOY  0200   28 42  270/  8/ 12 1020.0R         1/ 3
CHAMBERS ISLAND  0200   25     230/  6/ 11 1019.3F
MENOMINEE LKSHOR 0200   20     250/  6/ 10 1020.2R
$$


USA.gov is the U.S. government's official web portal to all federal, state and local government web resources and services.